Location: Santiago
(33.4378°S, 70.6505°W)
Time: 06:35:27
(UTC+00:00)

ISS - Pass Details

Date: 14 June 2024
Orbit: 410 x 424 km, 51.6° (Epoch: 12 July)

Event Time Altitude Azimuth Distance (km) Brightness Sun altitude
Rises 23:21:09 0° 300° (WNW) 2,378 1.5 -20.2°
Reaches altitude 10° 23:23:19 10° 293° (WNW) 1,515 0.2 -20.6°
Maximum altitude 23:26:35 42° 220° (SW) 620 -2.8 -21.3°
Enters shadow 23:26:49 41° 207° (SSW) 628 -2.9 -21.3°
